GFSNIL_sfc_wetblb_000.txt.gz
Wetbulb
51.42 49.21 48.47 47.37 45.92 45.34 45.31 45.47 46.32 46.63 46.50 45.94 44.92 44.23 44.18 42.72 43.05 42.16 42.35 42.11 41.70 39.94
49.21 48.87 47.71 46.23 46.34 45.87 46.14 46.14 45.52 44.91 44.18 44.58 43.89 43.21 42.06 40.73 40.18 40.17 40.25 40.56 39.92 38.75
47.78 48.62 47.74 47.20 46.01 45.96 45.37 44.80 44.30 44.13 43.59 43.13 42.88 42.60 41.26 39.86 40.42 39.86 39.30 39.86 39.71 38.98
47.49 47.11 46.82 46.04 44.75 44.23 43.70 43.28 42.40 42.35 41.96 41.34 40.92 40.48 40.45 39.11 38.96 38.10 36.95 37.89 38.62 38.42
46.75 46.06 44.92 44.55 43.24 42.75 41.91 42.30 41.42 40.97 40.23 40.04 39.62 39.53 38.85 38.20 38.45 37.44 36.69 36.97 36.82 36.74
45.15 43.74 43.06 42.37 42.20 41.82 41.09 40.77 39.69 38.56 37.27 36.69 36.46 36.16 35.68 35.34 35.51 34.59 33.47 33.60 33.56 34.40
44.01 42.26 41.21 41.36 40.58 39.99 39.94 38.34 37.47 37.13 37.11 36.85 36.30 36.13 34.93 34.48 32.91 32.09 32.17 32.15 31.82 32.46
43.78 42.39 41.92 40.71 39.78 39.41 38.54 37.53 37.13 36.32 36.11 35.78 35.44 32.91 31.09 30.91 30.15 29.40 29.39 29.79 30.84 31.82
44.18 42.40 40.94 40.15 39.42 38.17 37.19 36.39 35.95 35.26 35.09 34.00 35.14 30.45 29.96 28.86 26.95 28.43 27.69 26.87 28.19 29.93
41.44 40.41 40.37 39.89 38.89 36.88 35.23 35.05 34.59 34.42 34.22 33.22 32.08 30.34 29.91 28.61 26.95 26.21 25.99 26.24 27.11 28.56
41.69 40.29 40.29 39.03 37.98 36.51 34.87 34.06 33.45 33.62 33.47 31.99 32.39 32.73 31.68 28.66 25.74 25.50 25.50 26.07 26.04 26.52
40.70 39.59 38.73 37.43 36.74 35.21 34.00 33.43 33.46 33.59 32.08 30.49 30.24 32.63 31.40 28.91 25.20 25.43 24.70 26.11 26.57 27.47
39.48 38.99 37.76 37.27 35.87 34.57 34.09 33.71 33.11 31.33 31.09 31.88 29.16 31.96 30.80 28.52 24.54 23.03 24.14 25.74 26.58 27.86
38.84 37.95 37.87 36.67 34.92 33.53 32.76 31.17 30.71 30.02 29.88 29.99 29.90 28.84 29.80 28.53 25.28 24.01 23.98 23.41 23.77 25.92

GFSNIL_sfc_wetblb_003.txt.gz
Wetbulb
45.13 43.99 43.29 43.92 43.41 43.22 42.09 41.88 43.14 42.21 42.13 42.02 41.83 40.82 39.96 39.22 39.24 40.16 38.98 38.84 39.15 38.65
46.27 46.14 44.71 44.50 42.87 41.75 42.41 44.01 42.06 41.89 41.23 40.98 40.63 40.52 39.91 38.01 37.76 38.54 37.67 37.42 37.80 38.24
46.77 46.32 45.86 42.54 41.62 41.37 41.07 41.41 40.77 39.97 39.55 39.22 38.96 39.20 38.28 37.14 36.65 36.30 35.69 37.03 36.83 36.71
45.35 43.44 42.70 41.43 40.14 39.95 39.78 39.48 39.78 39.05 38.34 37.84 37.47 37.37 37.30 36.22 36.34 35.89 35.50 35.89 36.08 35.96
43.10 42.54 40.87 39.90 39.00 38.80 38.62 38.74 38.40 37.46 35.93 35.32 34.76 33.95 34.56 35.21 35.77 34.17 32.58 31.64 31.33 31.47
43.66 40.78 38.58 37.93 37.86 37.60 37.19 36.31 35.56 35.06 34.20 33.99 33.86 32.87 32.29 32.00 31.24 30.51 30.06 29.82 29.29 29.19
43.11 41.83 38.13 38.93 38.11 37.29 36.96 34.87 33.75 33.89 34.07 33.97 33.33 32.36 31.27 30.56 28.52 27.78 28.41 28.86 28.66 28.67
42.14 40.22 39.75 38.64 38.49 38.14 36.63 34.43 33.49 33.25 33.05 32.73 32.12 31.16 27.84 27.67 26.22 25.89 25.88 26.63 27.55 27.96
40.91 40.33 39.97 39.92 38.66 37.35 34.90 32.61 32.04 32.12 32.07 30.81 31.82 29.76 29.49 26.84 24.48 25.48 25.04 23.73 25.02 26.14
40.04 39.46 39.84 40.09 38.40 34.84 33.09 30.90 30.70 30.73 30.93 29.64 26.86 29.72 28.96 29.01 25.35 24.13 23.50 23.16 24.10 25.04
38.51 38.57 39.89 39.82 35.98 33.72 32.32 30.23 29.02 29.00 29.27 28.71 29.77 31.41 31.51 28.36 24.66 24.30 24.94 25.58 25.51 25.23
37.24 37.67 37.02 36.23 34.80 33.80 30.24 28.50 28.96 29.56 28.71 27.73 27.97 32.03 30.84 29.12 24.86 25.49 24.98 26.11 25.98 25.68
36.62 36.79 36.46 36.24 34.10 30.55 29.73 29.67 29.47 28.82 28.41 30.19 27.06 31.14 30.20 28.79 23.22 20.91 23.06 24.15 24.91 26.08
36.90 36.09 35.28 34.70 31.64 29.42 27.89 28.29 26.30 26.79 26.48 27.24 27.48 26.40 28.46 27.25 22.76 22.73 23.10 22.22 22.76 24.68

GFSNIL_sfc_wetblb_006.txt.gz
Wetbulb
43.54 44.29 44.38 44.17 40.89 42.78 42.27 41.41 41.13 40.66 40.26 39.93 39.76 38.98 38.26 37.16 36.80 37.16 36.41 35.11 35.58 36.07
45.56 45.47 45.12 45.45 43.21 42.79 40.69 41.88 39.85 39.67 38.94 38.44 38.21 37.97 37.69 35.90 35.41 34.60 34.34 34.32 34.50 34.78
45.96 45.00 43.89 41.59 40.08 39.25 39.20 39.72 39.04 37.77 37.04 37.09 36.85 36.69 36.59 35.22 34.87 34.31 34.10 34.96 34.00 34.03
42.40 42.00 41.29 39.69 40.19 39.04 39.01 39.91 39.61 37.87 36.63 35.53 34.51 34.33 33.37 33.77 34.41 34.22 32.91 31.86 30.67 30.36
42.19 41.39 40.03 38.91 38.15 38.53 38.47 38.10 37.54 37.78 35.67 33.70 33.04 32.09 31.41 31.90 31.79 29.91 28.99 28.59 28.14 28.04
42.08 41.35 38.53 38.00 37.58 36.95 36.14 37.12 36.85 35.53 33.85 32.61 32.54 31.94 31.01 30.18 29.37 27.80 27.39 27.19 26.85 26.73
38.36 40.55 37.28 36.28 36.80 39.00 39.25 39.32 35.78 33.63 33.61 33.47 32.48 31.67 30.08 28.82 26.72 26.44 26.78 27.48 26.83 26.00
39.29 38.24 38.00 38.91 38.90 39.24 39.21 39.09 34.95 33.13 32.69 31.42 31.48 30.12 27.33 27.21 26.42 25.67 25.98 26.24 25.84 25.76
39.48 39.28 38.32 37.97 37.95 37.62 37.69 33.72 33.05 31.96 31.02 29.73 31.12 30.78 30.39 28.16 25.13 25.53 24.73 23.21 24.19 24.69
38.79 37.94 37.85 38.24 37.96 37.21 33.55 34.49 30.87 29.71 29.26 27.72 27.43 30.85 31.18 30.26 25.97 24.30 23.32 23.30 23.57 24.47
36.33 36.02 36.41 36.54 35.82 35.33 34.03 31.49 28.79 27.74 28.27 27.79 28.83 31.39 31.70 29.53 26.24 24.43 24.83 25.09 24.41 23.78
35.80 35.22 34.74 35.19 34.72 35.15 31.82 27.40 28.41 28.61 27.80 26.90 27.25 31.05 30.43 28.87 24.41 24.12 23.23 24.64 24.88 24.52
35.78 35.35 34.79 34.10 33.07 31.75 28.29 29.09 28.82 27.33 26.85 28.51 25.07 28.92 28.14 26.27 21.00 17.81 21.40 23.04 23.78 24.92
34.74 33.87 33.64 32.52 30.00 28.59 28.06 28.05 25.57 25.10 25.18 25.33 25.26 24.74 26.68 26.13 21.29 20.42 21.43 20.82 21.70 22.94

GFSNIL_sfc_wetblb_009.txt.gz
Wetbulb
43.01 42.73 44.17 44.92 44.08 42.26 40.95 40.59 40.03 39.13 38.64 39.34 38.69 37.72 36.73 35.60 34.64 34.06 32.70 32.35 32.69 33.06
43.54 43.63 43.23 42.96 41.68 40.03 39.54 40.75 39.34 40.20 39.91 40.01 37.74 37.21 36.33 34.53 33.84 33.45 32.89 32.44 32.25 32.52
42.94 42.59 42.09 41.47 39.79 38.79 38.52 40.91 40.32 40.56 39.29 37.95 37.36 36.93 35.02 33.80 33.21 33.46 32.78 33.18 31.77 30.32
41.13 41.13 40.51 39.18 38.64 37.93 37.92 39.60 39.83 38.95 36.96 36.57 34.99 33.87 32.90 31.59 32.49 33.11 31.53 28.81 28.13 27.99
38.95 38.98 38.59 38.52 37.31 38.33 38.49 36.76 36.01 37.66 37.79 35.30 33.87 32.51 31.65 31.25 31.78 29.25 27.64 27.01 26.91 26.67
36.52 37.24 38.15 37.42 36.51 37.38 36.62 37.62 38.05 37.82 34.66 32.52 32.36 32.16 30.84 30.30 28.80 27.07 27.03 26.68 26.17 25.82
37.36 37.57 35.77 34.61 35.44 36.22 37.00 37.19 36.16 37.10 33.29 32.60 32.27 31.27 30.09 28.18 26.62 26.59 27.17 27.22 26.46 25.59
37.73 37.35 36.78 36.31 36.46 36.27 36.99 37.44 37.03 33.33 31.88 31.98 30.94 29.91 27.42 27.37 26.79 25.90 25.39 25.99 25.97 25.62
36.58 37.46 37.36 37.10 36.77 38.29 37.41 37.11 31.01 34.09 31.37 28.97 30.13 31.80 31.28 29.19 25.49 25.69 24.99 23.83 24.80 24.87
35.70 36.08 35.55 35.92 36.37 35.62 34.61 33.02 32.00 28.61 27.93 27.40 27.51 31.39 31.93 32.17 27.64 26.50 24.34 24.55 24.81 24.45
34.76 34.33 34.32 34.56 34.45 33.49 34.22 32.56 27.95 27.41 27.83 27.26 29.07 31.76 31.16 30.27 27.11 24.40 24.44 23.49 23.28 23.21
34.41 34.02 33.82 33.19 32.74 32.50 31.74 28.44 27.19 28.12 27.93 26.72 27.28 29.87 29.04 26.75 22.76 22.58 22.03 23.23 23.27 23.48
33.94 33.40 32.53 31.55 31.05 30.71 26.34 28.01 28.01 27.60 26.56 27.15 24.13 27.84 27.13 25.65 20.14 16.28 20.71 21.64 22.44 24.09
32.25 30.96 30.65 29.39 28.64 27.47 27.80 27.66 25.50 26.21 24.51 24.56 24.62 23.25 25.78 25.52 18.79 19.34 21.77 20.92 20.95 22.81

GFSNIL_sfc_wetblb_012.txt.gz
Wetbulb
41.21 40.92 41.59 41.72 41.60 41.12 40.22 39.70 38.98 38.62 37.85 37.82 39.04 39.09 39.05 37.40 34.23 34.42 33.33 32.09 31.58 31.91
41.99 41.61 41.37 41.22 40.95 40.01 39.41 40.02 38.50 37.73 39.13 38.22 39.86 38.42 36.48 34.33 33.53 34.01 33.51 32.67 32.45 31.69
38.81 39.03 38.92 38.78 38.46 38.69 37.98 38.54 39.93 39.67 39.21 39.24 37.77 36.72 36.20 35.10 33.02 32.64 32.26 32.75 31.51 29.33
36.95 37.36 37.66 37.53 37.88 36.99 36.94 38.15 38.38 38.78 36.70 35.12 35.39 34.19 32.19 31.30 30.68 30.76 31.39 29.42 28.45 28.03
36.26 36.73 36.58 36.70 36.57 36.07 36.25 36.56 36.08 35.98 37.51 37.04 34.05 31.74 29.92 29.69 29.91 29.97 28.27 27.70 27.20 27.03
35.60 35.90 35.64 35.04 35.12 35.04 34.24 34.45 36.50 38.36 37.40 34.77 32.32 30.73 30.97 29.25 29.34 27.60 27.10 27.03 26.53 26.29
34.86 35.81 35.38 35.05 34.32 34.16 34.87 36.51 38.09 36.55 35.42 32.43 31.35 31.15 29.80 28.42 27.06 26.61 27.05 27.27 26.67 25.94
35.18 35.48 35.84 35.82 35.86 35.88 35.75 37.92 38.00 34.10 31.37 30.58 30.85 30.18 27.97 27.62 26.73 26.07 25.78 26.04 26.46 26.44
35.08 35.14 34.94 35.23 34.92 35.26 35.34 34.82 34.23 31.51 30.28 28.83 29.68 32.06 31.93 30.49 27.55 26.48 26.00 25.74 25.48 25.66
34.38 34.16 34.00 33.91 33.67 33.95 33.19 32.32 33.00 29.86 27.63 26.92 27.49 32.03 32.06 30.97 27.73 25.63 24.51 23.49 22.78 22.99
33.55 33.05 33.07 32.86 32.70 31.97 32.21 31.68 30.10 27.05 27.00 27.23 29.98 30.89 30.32 29.10 24.64 23.29 23.22 23.16 22.48 22.16
32.86 32.27 32.19 31.58 30.63 29.97 29.92 29.13 27.67 27.92 27.32 27.38 25.85 29.08 28.14 26.30 23.05 22.77 22.26 23.01 23.22 22.99
32.16 31.54 30.29 29.17 28.93 29.34 26.58 27.58 27.83 27.21 26.13 26.58 24.20 26.83 26.59 25.45 20.45 16.86 20.43 22.46 22.91 23.52
31.33 30.20 29.20 28.37 27.48 26.55 25.96 26.47 24.34 25.20 24.48 24.65 24.57 22.88 25.60 25.95 19.25 19.54 21.53 21.09 21.04 22.50

GFSNIL_sfc_wetblb_015.txt.gz
Wetbulb
48.86 48.08 47.11 46.30 45.70 45.56 45.83 46.42 47.23 46.13 44.60 43.77 43.37 42.36 42.04 42.01 41.53 40.96 40.28 39.36 39.20 38.21
44.96 44.38 44.02 44.53 44.87 44.58 45.39 45.05 45.68 44.88 43.67 44.42 43.50 42.51 42.70 41.49 41.05 40.52 40.34 40.02 39.52 38.84
43.24 43.51 43.71 43.57 42.63 43.17 44.29 44.68 44.87 43.93 44.06 43.61 43.18 42.60 41.78 40.69 40.72 39.51 39.41 38.69 38.59 38.49
42.75 43.11 43.25 42.74 42.70 42.70 43.59 43.93 43.67 43.82 43.12 42.50 41.14 40.60 40.14 40.02 38.87 37.17 37.64 38.37 36.86 35.63
42.32 42.57 42.14 41.88 42.10 42.80 42.04 42.40 41.74 41.77 40.75 41.25 41.40 40.39 38.66 37.78 37.07 36.36 36.18 35.81 34.84 33.77
41.24 41.45 41.51 41.51 41.91 42.03 41.42 41.22 41.25 40.75 40.22 39.48 40.63 38.79 37.27 36.24 35.83 35.55 34.85 33.90 33.16 32.90
40.93 41.24 41.26 41.35 41.46 41.22 41.44 41.21 41.69 40.76 39.06 38.79 37.06 36.45 35.89 35.27 34.83 33.68 33.13 32.98 32.54 31.99
40.70 40.98 40.95 40.79 40.63 40.56 40.77 40.95 41.68 40.47 37.35 37.01 35.83 34.55 34.91 34.04 33.40 32.79 32.43 32.15 30.95 30.35
39.55 40.03 40.31 40.08 39.52 39.44 39.83 39.78 39.82 37.89 37.12 35.94 33.69 32.77 32.93 33.16 32.78 31.63 30.08 28.07 28.48 28.29
38.47 38.75 39.21 38.75 38.32 38.06 38.11 38.20 38.55 37.90 35.22 33.44 33.91 32.41 31.70 30.05 30.75 29.08 28.18 27.34 26.55 26.30
37.67 37.62 38.19 37.74 37.00 36.95 37.03 37.10 37.54 35.08 33.27 33.31 32.00 30.60 28.99 27.90 29.35 28.19 27.50 26.65 26.49 26.11
36.91 36.98 36.99 36.40 36.04 36.00 35.80 35.32 34.44 33.93 32.77 31.84 30.92 28.59 27.50 27.83 27.94 26.71 26.05 26.40 26.75 26.25
37.06 36.23 35.98 36.00 35.24 35.41 35.21 33.25 33.69 32.08 31.66 28.20 29.20 26.82 26.63 27.30 27.76 25.82 25.69 26.26 25.97 24.79
36.49 35.86 36.04 35.32 35.17 34.42 33.62 32.44 31.76 30.01 29.89 28.95 28.30 27.80 25.59 26.19 27.50 26.21 25.17 24.21 24.18 25.37

GFSNIL_sfc_wetblb_018.txt.gz
Wetbulb
47.70 46.45 47.06 46.53 46.31 45.96 45.60 45.81 47.35 47.97 48.93 49.46 48.15 45.52 44.82 46.08 44.89 43.71 42.50 41.63 41.14 40.66
46.31 46.91 46.31 46.47 46.62 45.77 45.85 45.18 46.42 48.15 48.25 47.86 47.11 46.25 45.12 45.11 43.81 43.54 42.75 41.83 41.42 40.55
46.69 46.54 46.43 46.36 45.28 45.00 45.26 45.32 45.56 46.32 46.87 46.24 46.79 46.34 44.57 44.23 43.50 42.33 41.97 41.25 40.47 40.22
46.37 46.59 46.04 45.45 44.88 44.50 44.82 44.60 44.18 44.59 45.34 45.19 44.52 43.64 43.97 43.43 42.92 41.42 40.29 40.30 38.74 39.43
46.31 46.11 44.91 44.71 44.30 44.58 43.90 44.35 44.01 43.84 43.54 43.44 43.23 43.48 42.44 42.38 41.52 39.61 38.99 38.98 38.91 38.16
45.18 44.57 44.26 44.39 44.01 43.82 43.40 43.46 43.69 43.58 43.06 42.62 42.45 42.46 42.10 40.50 39.55 39.43 38.96 38.60 37.60 37.10
44.41 44.29 44.33 44.05 43.57 43.33 43.26 42.70 42.85 43.27 43.04 42.92 41.34 40.35 40.12 39.37 38.89 38.46 37.86 37.66 37.17 36.34
44.51 44.37 44.03 43.68 43.07 42.98 42.68 42.49 42.62 42.23 42.31 41.77 40.59 39.26 38.66 38.85 38.00 37.61 36.78 36.62 35.49 34.19
43.56 43.38 43.11 42.87 42.32 42.06 41.58 41.60 41.54 41.32 41.50 40.92 39.67 32.57 33.07 32.80 36.55 36.06 34.88 33.36 33.15 33.03
42.63 41.96 41.72 41.79 41.52 41.04 40.57 40.94 40.46 40.79 40.75 39.63 38.84 32.54 30.97 29.46 35.17 34.39 33.38 32.30 31.59 30.94
41.08 40.45 40.93 41.22 40.78 40.80 40.55 39.83 39.79 39.48 38.90 38.17 36.17 30.64 28.67 28.32 34.42 33.48 32.29 31.61 31.14 30.73
40.01 39.69 40.00 39.75 39.94 40.39 39.66 39.39 39.04 38.48 37.78 37.38 36.21 29.21 27.60 28.62 32.88 31.63 30.86 30.87 30.88 29.45
39.49 39.42 39.09 39.18 39.31 39.90 39.63 38.11 37.91 37.23 37.45 32.05 34.88 28.22 27.15 28.36 32.39 30.18 29.98 30.62 29.86 27.17
39.24 38.68 38.84 39.22 39.65 39.19 38.77 37.32 37.00 35.11 35.78 35.10 33.64 32.54 27.00 26.48 30.51 30.24 28.68 28.69 28.75 28.64

GFSNIL_sfc_wetblb_021.txt.gz
Wetbulb
48.58 47.29 47.54 47.72 47.33 46.62 46.01 46.18 47.10 47.07 47.87 48.47 48.71 48.26 47.30 46.20 46.24 45.57 44.19 43.08 42.42 41.56
47.20 47.90 48.39 47.66 47.89 46.44 46.49 45.78 46.15 46.63 46.52 47.47 47.58 47.57 46.91 46.24 45.75 44.70 43.90 43.36 42.63 41.45
48.14 48.40 48.74 48.54 46.65 45.84 46.00 45.88 45.52 45.30 45.37 45.67 46.24 46.71 46.84 45.52 45.09 43.82 43.71 42.76 41.42 40.90
47.63 47.67 47.91 47.28 46.67 45.70 45.55 45.32 44.60 44.57 44.42 44.31 44.36 44.58 44.18 43.80 43.70 42.80 42.44 42.22 40.72 40.15
47.72 47.81 47.00 46.85 46.34 45.91 44.89 44.98 44.22 43.95 43.79 43.89 43.85 43.46 43.24 42.54 42.59 41.65 40.57 40.13 39.79 38.86
47.12 46.88 46.51 46.18 45.88 45.40 44.62 44.05 43.89 43.73 43.23 42.92 42.54 42.00 42.35 40.95 40.70 40.23 40.01 39.35 38.68 37.71
46.43 46.57 46.46 46.25 45.33 45.03 44.43 43.44 43.22 43.44 42.97 42.95 42.11 41.42 40.90 39.99 40.02 39.68 39.38 38.82 38.27 37.30
46.51 46.56 46.18 45.29 44.88 44.54 43.90 43.32 43.11 42.62 42.49 42.60 42.14 40.34 40.34 39.84 39.50 38.50 37.70 37.86 36.92 36.42
45.75 45.44 45.13 44.34 43.99 43.48 43.14 42.78 42.27 41.84 41.44 41.61 41.06 33.18 33.10 32.66 36.61 37.11 36.30 34.96 35.11 34.91
44.65 43.91 43.41 42.97 42.18 42.05 42.24 42.40 41.56 40.96 40.56 39.91 38.92 33.44 31.36 29.83 34.55 35.78 35.49 34.42 33.41 32.90
43.25 41.71 41.62 41.33 41.53 41.80 42.09 41.50 40.53 40.18 40.02 39.36 36.64 32.00 29.75 29.35 33.59 35.49 34.78 33.79 33.12 32.37
41.23 40.58 40.41 40.44 40.67 41.06 41.13 40.79 40.26 40.08 38.98 38.13 36.50 30.98 29.69 28.64 34.03 33.80 32.80 33.02 32.96 31.45
40.26 39.91 39.65 40.00 39.81 40.85 40.71 39.56 40.11 38.76 38.77 33.69 37.22 30.40 29.17 29.10 33.05 32.06 31.74 32.25 32.09 28.85
39.98 40.01 40.24 39.75 39.82 39.95 39.19 39.58 38.55 37.35 37.70 37.57 36.30 34.18 29.29 28.60 30.36 31.50 30.25 29.86 30.07 31.07

GFSNIL_sfc_wetblb_024.txt.gz
Wetbulb
48.62 46.99 46.55 47.39 45.59 44.75 43.97 43.57 44.12 44.16 44.39 44.44 45.45 45.14 44.68 43.17 42.47 42.37 42.08 40.40 39.98 38.23
47.69 46.89 46.85 46.92 46.09 44.90 44.69 44.15 43.72 43.78 43.35 43.40 43.31 44.30 42.30 43.28 43.20 43.20 41.37 39.68 40.63 38.59
47.11 48.41 47.60 46.57 45.04 44.04 43.60 43.67 43.57 43.15 42.74 42.54 42.33 42.20 42.62 42.22 41.57 40.34 39.96 41.31 40.04 39.08
47.20 47.81 47.14 46.12 45.13 43.80 43.70 43.55 42.90 42.75 42.15 41.62 41.47 41.62 41.04 40.30 40.38 39.87 39.04 39.22 38.82 38.97
47.85 46.79 46.39 45.74 44.89 44.32 43.01 43.43 42.46 42.41 41.78 41.82 41.60 40.72 40.00 39.23 39.45 38.49 37.74 37.04 36.78 36.51
46.67 46.23 46.03 45.03 44.74 44.36 43.10 42.46 42.13 41.88 41.31 41.04 40.83 40.54 39.84 39.10 37.83 36.97 36.66 36.33 35.42 35.40
45.90 45.82 45.11 44.91 44.39 43.52 43.44 41.89 41.28 41.32 41.12 41.00 40.57 40.27 40.19 38.80 36.85 36.68 36.63 36.71 35.36 34.64
46.08 45.65 45.05 45.07 44.29 43.53 42.68 41.95 41.68 40.79 40.22 40.08 40.21 38.43 37.32 36.66 35.54 34.90 34.31 34.51 34.74 33.19
45.98 45.13 44.72 44.27 43.11 42.59 42.00 41.29 40.90 40.09 39.72 39.22 38.90 34.14 33.47 32.20 31.38 33.22 32.77 31.05 31.02 30.97
44.96 43.78 43.12 42.50 41.48 40.66 40.54 40.90 40.22 39.89 39.06 38.09 34.19 33.79 32.24 30.75 30.57 31.05 30.92 29.92 29.14 29.90
43.57 42.30 41.16 40.15 39.82 40.02 40.14 39.47 39.05 37.94 38.39 37.80 34.73 33.36 31.65 30.16 27.78 30.25 30.78 29.58 29.28 27.94
41.23 39.94 39.41 38.99 38.79 39.02 38.51 38.21 38.11 38.52 37.57 36.38 32.07 32.62 31.33 29.21 28.13 29.63 29.32 30.35 29.87 29.42
39.68 38.93 38.18 38.51 38.12 38.29 38.32 38.40 38.11 36.97 36.41 34.48 31.80 32.07 30.79 29.14 27.47 27.82 27.76 28.20 28.17 28.05
39.16 38.74 38.88 38.18 37.80 37.47 37.27 36.71 34.86 33.02 33.76 33.59 33.30 30.08 31.10 30.50 27.07 27.09 27.21 26.43 25.84 26.67

GFSNIL_sfc_wetblb_030.txt.gz
Wetbulb
43.48 43.04 42.39 42.22 43.19 42.96 41.87 41.24 41.19 41.20 39.78 39.33 39.32 38.21 37.90 38.29 38.98 39.03 37.79 37.49 37.31 37.09
44.57 43.86 43.03 42.99 42.35 42.72 41.71 42.23 41.41 39.78 38.54 40.53 39.61 38.18 37.60 37.44 38.00 38.56 38.06 37.63 37.43 37.71
44.05 44.10 43.12 43.46 42.31 42.46 42.22 41.73 41.43 40.34 40.00 38.25 38.00 37.73 37.77 37.26 36.92 36.48 36.31 37.31 37.05 36.88
43.38 43.66 44.19 43.94 42.95 42.34 41.95 41.78 40.64 39.41 39.87 38.20 38.26 37.64 36.48 36.49 36.65 36.44 36.28 35.66 35.55 36.76
43.08 44.98 44.44 43.68 43.06 41.56 41.31 40.85 39.45 38.75 38.61 38.52 38.71 38.08 36.79 36.45 36.79 36.10 34.90 35.06 34.83 34.71
43.15 44.24 43.52 43.57 41.56 40.80 39.02 38.82 38.36 38.06 38.01 38.27 38.43 38.37 38.41 37.24 36.08 34.54 34.96 34.96 33.22 32.80
44.36 44.58 42.02 42.43 40.39 39.68 39.28 39.76 38.44 38.26 38.15 39.05 37.73 38.25 38.36 36.28 34.82 34.65 34.76 35.00 33.31 31.82
44.56 43.76 42.84 40.27 39.32 39.84 39.45 39.19 38.83 38.11 38.60 38.63 38.11 37.70 36.64 35.37 33.26 31.48 31.01 31.19 30.79 29.43
44.45 43.23 41.94 40.71 39.51 37.41 38.14 38.38 38.53 37.87 37.29 36.00 37.38 36.02 36.20 33.46 30.48 31.26 30.15 28.40 27.35 27.47
41.99 39.77 39.07 38.90 38.19 37.80 37.88 37.87 37.46 36.50 36.68 36.48 35.95 35.27 35.16 33.73 29.94 28.96 27.92 27.39 26.76 27.48
39.19 38.13 38.25 38.27 38.19 37.97 37.57 36.69 35.84 35.70 36.35 35.83 35.20 34.85 34.66 32.38 27.55 27.53 28.37 27.63 26.93 25.96
37.57 38.36 38.79 38.42 37.63 37.25 36.82 35.19 34.99 35.73 35.66 34.40 33.05 34.51 33.61 30.40 26.16 27.17 28.06 28.57 27.85 27.26
39.32 38.29 37.69 37.59 36.55 36.27 35.29 34.72 34.22 33.37 33.09 33.35 31.10 33.87 33.78 31.02 25.42 26.43 26.45 26.71 26.46 29.47
39.20 38.38 37.88 37.05 35.32 33.76 32.36 31.17 29.41 29.68 29.96 30.23 30.47 29.68 33.92 33.25 26.50 26.75 26.30 26.40 25.15 25.12

GFSNIL_sfc_wetblb_033.txt.gz
Wetbulb
47.47 47.60 48.69 46.86 44.06 42.93 42.09 41.63 41.73 41.76 41.73 41.11 41.01 39.63 36.71 36.83 37.41 38.06 37.33 37.64 37.51 36.70
45.42 45.58 45.91 45.52 43.74 42.50 42.16 42.11 41.71 41.24 40.70 40.84 39.89 37.57 36.94 36.31 36.64 37.84 37.40 37.06 36.71 37.03
45.60 45.31 44.16 43.17 42.32 41.90 42.15 42.41 41.37 40.70 40.54 39.80 38.64 37.75 36.35 36.49 37.29 36.68 35.70 36.10 35.68 35.48
42.59 43.01 42.38 42.65 42.41 42.34 42.52 41.76 41.47 41.24 39.99 38.35 37.41 37.73 37.00 36.20 35.77 35.17 34.74 34.75 33.95 34.73
42.81 42.64 43.24 42.93 42.49 42.17 41.55 40.98 40.79 39.27 38.12 37.70 37.56 37.41 36.29 35.04 35.87 34.91 33.26 33.77 34.00 34.17
42.92 43.67 43.22 42.68 42.30 40.58 38.89 38.94 38.19 37.57 37.29 37.50 38.00 37.67 36.39 35.49 35.21 34.07 33.39 33.65 32.99 32.37
43.57 44.08 43.45 43.33 41.79 40.93 40.09 38.81 38.34 38.46 38.68 38.37 37.58 36.84 36.68 35.98 34.25 33.55 33.66 33.84 32.92 32.07
44.16 44.56 43.34 42.25 41.06 40.38 39.94 39.67 39.38 38.93 38.81 38.68 38.06 36.85 35.97 34.83 33.42 31.92 31.15 31.00 30.55 29.27
43.97 41.89 41.36 40.12 39.09 38.42 38.34 38.76 38.89 38.54 37.92 37.11 36.73 36.54 36.64 34.51 31.27 30.74 29.19 28.24 27.88 27.44
39.94 38.54 38.27 38.77 38.63 38.31 38.39 38.59 37.57 36.79 36.25 35.98 36.03 36.23 36.72 35.22 30.02 28.88 28.00 27.58 27.11 27.02
38.57 38.45 38.83 38.77 38.64 38.56 38.31 37.57 36.84 35.62 35.30 34.87 34.74 35.65 35.80 34.32 28.56 27.44 27.45 27.69 26.85 26.01
39.65 39.29 39.16 38.31 37.88 37.89 37.42 36.55 34.73 34.87 32.94 31.69 31.41 34.49 34.96 32.56 26.79 26.59 27.10 28.44 27.64 27.06
39.67 38.92 37.72 37.65 37.32 36.53 35.90 34.44 33.00 31.34 30.76 31.87 30.56 33.02 34.79 33.22 26.07 26.27 26.60 26.86 27.29 31.10
39.51 38.45 38.31 37.30 36.56 34.96 32.42 30.69 28.87 28.82 29.03 29.26 29.90 30.13 33.31 34.83 28.31 27.44 26.95 26.90 26.05 26.23